Starlink 31621

operational
NORAD ID: 59465 Int'l Des: 2024-068 Owner: SPXS Country: US Constellation: starlink
LEOCIRCULAR

About Starlink 31621

Description loading...

Live Position

Loading 3D Globe...

Upcoming Passes

Altitude History

Altitude vs Time

uPlot chart will show altitude changes over time

Two-Line Element Set

1 59465U 24068L 25258.40302708 .00001403 00000-0 60495-4 0 9991
2 59465 43.0038 304.5694 0001751 274.0349 86.0303 15.27580418 81711
Epoch: Sep 15, 2025 • Age: 17 hours

Current Status

Altitude 493.1 km
Velocity 7.62 km/s
Sub-Earth Point -37.84°S, 150.52°W
Launch Date Apr 10, 2024
Age 1.4 years
Type internet

Technical Details

Classification Payload
Mass 730.00 kg
Dry Mass 700.00 kg
Total Mass 730.00 kg
Length 0.30 m
Diameter 4.10 m
Span 29.00 m
Shape Box + pan
Manufacturer SPXS
Bus Type Starlink V2M
Phase Status In Orbit
Owner/State SPXS/US

Large Constellations

Loading constellations...